Location: Caltech
(34.1382°N, 118.1253°W)
Time: 20:39:27
(UTC-07:00)

Cosmos 2219 Rocket - Visible Passes

Search period start: 17 October 2017 00:00
Search period end: 27 October 2017 00:00
Orbit: 830 x 845 km, 71.0° (Epoch: 17 October)

Date Brightness Start Highest point End Pass type
(mag) Time Alt. Az. Time Alt. Az. Time Alt. Az.
17 Oct 3.2 20:34:03 10° NNW 20:37:18 36° N 20:37:18 36° N visible
18 Oct 2.6 20:17:43 10° NNW 20:21:58 49° NNE 20:21:58 49° NNE visible
19 Oct 2.2 20:01:23 10° NNW 20:06:49 58° ENE 20:06:49 58° ENE visible
19 Oct 4.9 21:47:10 10° WNW 21:48:36 13° W 21:48:36 13° W visible
20 Oct 2.2 19:45:04 10° N 19:50:33 53° ENE 19:51:55 43° ESE visible
20 Oct 4.6 21:30:32 10° WNW 21:33:43 17° W 21:33:43 17° W visible
21 Oct 2.3 19:28:45 10° N 19:34:10 49° ENE 19:37:22 23° SE visible
21 Oct 4.5 21:13:56 10° WNW 21:17:39 18° W 21:19:13 16° WSW visible
22 Oct 2.4 19:12:27 10° N 19:17:48 45° ENE 19:23:09 10° SE visible
22 Oct 4.5 20:57:23 10° NW 21:01:21 20° W 21:05:19 10° SW visible
23 Oct 2.6 18:56:09 10° N 19:01:26 41° ENE 19:06:42 10° SE visible
23 Oct 4.4 20:40:50 10° NW 20:45:01 22° W 20:49:14 10° SSW visible
24 Oct 2.7 18:39:52 10° N 18:45:04 38° ENE 18:50:15 10° SE visible
24 Oct 4.3 20:24:19 10° NW 20:28:43 24° WSW 20:33:07 10° SSW visible
25 Oct 2.8 18:23:35 10° N 18:28:41 35° ENE 18:33:46 10° SE visible
25 Oct 4.2 20:07:50 10° NW 20:12:24 26° WSW 20:16:58 10° SSW visible
26 Oct 4.1 19:51:21 10° NW 19:56:05 29° WSW 20:00:49 10° SSW visible
